Shishmaref, AK

2:33 PM AKST on February 24, 2017 (GMT -0900)
New Shishmaref

Weather History for PASH - April, 2014

Change the Weather History Date:

Saturday, April 19, 2014

  Actual Average Record
Temperature  
Mean Temperature 26 °F -  
Max Temperature 30 °F 19 °F 39 °F (2016)
Min Temperature 21 °F 5 °F -11 °F (2009)
Degree Days  
Heating Degree Days 40    
Moisture  
Dew Point 21 °F    
Average Humidity 87    
Maximum Humidity 93    
Minimum Humidity 80    
Precipitation  
Precipitation 0.00 in - - ()
Sea Level Pressure  
Sea Level Pressure 29.79 in    
Wind  
Wind Speed 7 mph (North)    
Max Wind Speed 12 mph    
Max Gust Speed -    
Visibility 10 miles    
Events      
Averages and records for this station are not official NWS values.
T = Trace of Precipitation, MM = Missing Value Source: NWS Daily Summary

Daily Weather History Graph

Daily Weather History Graph

Search for Another Location

Airport or City:

Trip Planner

Search our weather history database for the weather conditions in past years. The results will help you decide how hot, cold, wet, or windy it might be!

Date:

Astronomy

Apr. 19, 2014 Rise Set
Actual Time 7:05 AM AKDT 11:03 PM AKDT
Civil Twilight 6:00 AM AKDT 12:10 AM AKDT
Nautical Twilight 3:51 AM AKDT 2:34 AM AKDT
Astronomical Twilight Sun does not rise Sun does not rise
Moon 4:08 AM AKDT (4/19) 9:26 AM AKDT (4/19)
Length of Visible Light 18h 10m
Length of Day
15h 57m
Waning Gibbous, 77% of the Moon is Illuminated
Apr 19
Waning Gibbous
Apr 21
Last Quarter
Apr 28
New
May 6
First Quarter
May 14
Full

Hourly Weather History & Observations

Time (AKDT) Temp. Windchill Dew Point Humidity Pressure Visibility Wind Dir Wind Speed Gust Speed Precip Events Conditions
12:16 AM 21.2 °F 12.6 °F 19.4 °F 93% 29.70 in 10.0 mi North 6.9 mph - N/A   Overcast
12:36 AM 21.2 °F 13.6 °F 19.4 °F 93% 29.70 in 10.0 mi North 5.8 mph - N/A   Mostly Cloudy
12:56 AM 21.2 °F 12.6 °F 19.4 °F 93% 29.70 in 10.0 mi North 6.9 mph - N/A   Scattered Clouds
1:16 AM 21.2 °F 12.6 °F 19.4 °F 93% 29.70 in 10.0 mi North 6.9 mph - N/A   Mostly Cloudy
1:36 AM 21.2 °F 12.6 °F 19.4 °F 93% 29.70 in 10.0 mi North 6.9 mph - N/A   Partly Cloudy
1:56 AM 21.2 °F 13.6 °F 17.6 °F 86% 29.71 in 10.0 mi North 5.8 mph - N/A   Scattered Clouds
2:16 AM 21.2 °F 11.7 °F 17.6 °F 86% 29.71 in 10.0 mi North 8.1 mph - N/A   Mostly Cloudy
2:36 AM 21.2 °F 12.6 °F 17.6 °F 86% 29.71 in 10.0 mi North 6.9 mph - N/A   Overcast
2:56 AM 21.2 °F 12.6 °F 17.6 °F 86% 29.71 in 10.0 mi North 6.9 mph - N/A   Overcast
3:16 AM 21.2 °F 12.6 °F 17.6 °F 86% 29.72 in 10.0 mi North 6.9 mph - N/A   Overcast
3:36 AM 21.2 °F 13.6 °F 17.6 °F 86% 29.72 in 10.0 mi North 5.8 mph - N/A   Overcast
3:56 AM 21.2 °F 13.6 °F 17.6 °F 86% 29.72 in 10.0 mi North 5.8 mph - N/A   Overcast
4:16 AM 21.2 °F 13.6 °F 17.6 °F 86% 29.72 in 10.0 mi North 5.8 mph - N/A   Overcast
4:36 AM 21.2 °F 14.9 °F 19.4 °F 93% 29.72 in 10.0 mi NNW 4.6 mph - N/A   Overcast
4:56 AM 21.2 °F 13.6 °F 17.6 °F 86% 29.72 in 10.0 mi North 5.8 mph - N/A   Overcast
5:16 AM 21.2 °F - 19.4 °F 93% 29.73 in 10.0 mi Calm Calm - N/A   Overcast
5:36 AM 21.2 °F 16.4 °F 19.4 °F 93% 29.73 in 10.0 mi North 3.5 mph - N/A   Overcast
5:56 AM 21.2 °F 16.4 °F 19.4 °F 93% 29.73 in 10.0 mi North 3.5 mph - N/A   Overcast
6:16 AM 21.2 °F 13.6 °F 17.6 °F 86% 29.73 in 10.0 mi North 5.8 mph - N/A   Overcast
6:36 AM 21.2 °F 16.4 °F 19.4 °F 93% 29.74 in 10.0 mi North 3.5 mph - N/A   Overcast
6:56 AM 21.2 °F 13.6 °F 19.4 °F 93% 29.74 in 10.0 mi North 5.8 mph - N/A   Overcast
7:16 AM 21.2 °F 13.6 °F 19.4 °F 93% 29.74 in 10.0 mi North 5.8 mph - N/A   Overcast
7:36 AM 21.2 °F 13.6 °F 19.4 °F 93% 29.75 in 10.0 mi NNW 5.8 mph - N/A   Overcast
7:56 AM 21.2 °F 13.6 °F 19.4 °F 93% 29.75 in 10.0 mi North 5.8 mph - N/A   Overcast
8:16 AM 21.2 °F 13.6 °F 19.4 °F 93% 29.75 in 10.0 mi North 5.8 mph - N/A   Overcast
8:36 AM 23.0 °F 17.0 °F 19.4 °F 86% 29.75 in 10.0 mi North 4.6 mph - N/A   Overcast
8:56 AM 23.0 °F 18.4 °F 19.4 °F 86% 29.76 in 10.0 mi North 3.5 mph - N/A   Overcast
9:16 AM 23.0 °F 17.0 °F 19.4 °F 86% 29.76 in 10.0 mi North 4.6 mph - N/A   Overcast
9:36 AM 23.0 °F 15.8 °F 21.2 °F 93% 29.76 in 10.0 mi North 5.8 mph - N/A   Overcast
9:56 AM 24.8 °F 17.9 °F 21.2 °F 86% 29.77 in 10.0 mi North 5.8 mph - N/A   Overcast
10:16 AM 24.8 °F 17.9 °F 21.2 °F 86% 29.77 in 10.0 mi North 5.8 mph - N/A   Overcast
10:36 AM 24.8 °F 16.9 °F 21.2 °F 86% 29.77 in 10.0 mi North 6.9 mph - N/A   Overcast
10:56 AM 24.8 °F 16.1 °F 21.2 °F 86% 29.78 in 10.0 mi North 8.1 mph - N/A   Overcast
11:16 AM 26.6 °F 20.0 °F 23.0 °F 86% 29.78 in 10.0 mi North 5.8 mph - N/A   Overcast
11:36 AM 26.6 °F 19.1 °F 23.0 °F 86% 29.79 in 10.0 mi North 6.9 mph - N/A   Overcast
11:56 AM 26.6 °F 18.2 °F 23.0 °F 86% 29.79 in 10.0 mi North 8.1 mph - N/A   Overcast
12:16 PM 26.6 °F 18.2 °F 23.0 °F 86% 29.79 in 10.0 mi North 8.1 mph - N/A   Overcast
12:36 PM 28.4 °F 20.4 °F 24.8 °F 86% 29.79 in 10.0 mi North 8.1 mph - N/A   Overcast
12:56 PM 28.4 °F 19.1 °F 24.8 °F 86% 29.79 in 10.0 mi North 10.4 mph - N/A   Mostly Cloudy
1:16 PM 28.4 °F 20.4 °F 24.8 °F 86% 29.80 in 10.0 mi NNE 8.1 mph - N/A   Partly Cloudy
1:36 PM 28.4 °F 20.4 °F 24.8 °F 86% 29.81 in 10.0 mi NNE 8.1 mph - N/A   Clear
1:56 PM 28.4 °F 20.4 °F 24.8 °F 86% 29.81 in 10.0 mi North 8.1 mph - N/A   Partly Cloudy
2:16 PM 28.4 °F 20.4 °F 24.8 °F 86% 29.81 in 10.0 mi North 8.1 mph - N/A   Mostly Cloudy
2:36 PM 28.4 °F 19.7 °F 24.8 °F 86% 29.81 in 10.0 mi North 9.2 mph - N/A   Mostly Cloudy
2:56 PM 30.2 °F 22.6 °F 24.8 °F 80% 29.82 in 10.0 mi North 8.1 mph - N/A   Overcast
3:16 PM 30.2 °F 22.6 °F 26.6 °F 86% 29.82 in 10.0 mi NNE 8.1 mph - N/A   Overcast
3:36 PM 30.2 °F 21.3 °F 24.8 °F 80% 29.82 in 10.0 mi NNE 10.4 mph - N/A   Partly Cloudy
3:56 PM 30.2 °F 21.9 °F 24.8 °F 80% 29.82 in 10.0 mi North 9.2 mph - N/A   Clear
4:16 PM 30.2 °F 21.3 °F 24.8 °F 80% 29.82 in 10.0 mi North 10.4 mph - N/A   Clear
4:36 PM 30.2 °F 21.9 °F 24.8 °F 80% 29.83 in 10.0 mi North 9.2 mph - N/A   Clear
4:56 PM 30.2 °F 21.3 °F 24.8 °F 80% 29.83 in 10.0 mi North 10.4 mph - N/A   Clear
5:16 PM 30.2 °F 21.3 °F 24.8 °F 80% 29.83 in 10.0 mi North 10.4 mph - N/A   Scattered Clouds
5:36 PM 30.2 °F 20.8 °F 24.8 °F 80% 29.83 in 10.0 mi North 11.5 mph - N/A   Overcast
5:56 PM 30.2 °F 21.3 °F 24.8 °F 80% 29.83 in 10.0 mi North 10.4 mph - N/A   Mostly Cloudy
6:16 PM 30.2 °F 20.8 °F 24.8 °F 80% 29.83 in 10.0 mi North 11.5 mph - N/A   Mostly Cloudy
6:36 PM 28.4 °F 19.1 °F 24.8 °F 86% 29.84 in 10.0 mi North 10.4 mph - N/A   Mostly Cloudy
6:56 PM 28.4 °F 19.1 °F 26.6 °F 93% 29.84 in 10.0 mi North 10.4 mph - N/A   Scattered Clouds
7:16 PM 28.4 °F 19.7 °F 24.8 °F 86% 29.84 in 10.0 mi North 9.2 mph - N/A   Mostly Cloudy
7:36 PM 28.4 °F 19.7 °F 24.8 °F 86% 29.85 in 10.0 mi North 9.2 mph - N/A   Partly Cloudy
7:56 PM 28.4 °F 19.7 °F 24.8 °F 86% 29.85 in 10.0 mi North 9.2 mph - N/A   Clear
8:16 PM 28.4 °F 20.4 °F 23.0 °F 80% 29.85 in 10.0 mi North 8.1 mph - N/A   Clear
8:36 PM 28.4 °F 20.4 °F 23.0 °F 80% 29.86 in 10.0 mi North 8.1 mph - N/A   Clear
8:56 PM 26.6 °F 17.5 °F 23.0 °F 86% 29.86 in 10.0 mi North 9.2 mph - N/A   Clear
9:16 PM 26.6 °F 18.2 °F 21.2 °F 80% 29.86 in 10.0 mi North 8.1 mph - N/A   Clear
9:36 PM 26.6 °F 20.0 °F 21.2 °F 80% 29.87 in 10.0 mi North 5.8 mph - N/A   Scattered Clouds
9:56 PM 24.8 °F 16.9 °F 21.2 °F 86% 29.87 in 10.0 mi North 6.9 mph - N/A   Scattered Clouds
10:16 PM 24.8 °F 16.9 °F 19.4 °F 80% 29.88 in 10.0 mi North 6.9 mph - N/A   Mostly Cloudy
10:36 PM 23.0 °F 13.9 °F 19.4 °F 86% 29.88 in 10.0 mi North 8.1 mph - N/A   Scattered Clouds
10:56 PM 21.2 °F 11.7 °F 19.4 °F 93% 29.89 in 10.0 mi North 8.1 mph - N/A   Scattered Clouds
11:16 PM 21.2 °F 11.7 °F 17.6 °F 86% 29.89 in 10.0 mi North 8.1 mph - N/A   Mostly Cloudy
11:36 PM 21.2 °F 11.7 °F 19.4 °F 93% 29.90 in 10.0 mi North 8.1 mph - N/A   Mostly Cloudy
11:56 PM 21.2 °F 10.9 °F 17.6 °F 86% 29.90 in 10.0 mi North 9.2 mph - N/A   Mostly Cloudy